Tracking 18823 objects as of 20-October-2017
HD Live streaming from Space Station
objects crossing your sky now

COSMOS 1860

Track COSMOS 1860 now!
10-day predictions
COSMOS 1860 is classified as:


NORAD ID: 18122
Int'l Code: 1987-052A
Perigee: 918.5 km
Apogee: 989.6 km
Inclination: 65.0 °
Period: 104.0 minutes
Semi major axis: 7325 km
RCS: 2.8634 m2 (large)
Launch date: June 18, 1987
Source: Commonwealth of Independent States (former USSR) (CIS)
Launch site: TYURATAM MISSILE AND SPACE COMPLEX (TTMTR)
aabbcc
Your satellite tracking list
Your tracking list is empty





NASA's NSSDC Master Catalog

Two Line Element Set (TLE):
1 18122U 87052A   17293.18588433 -.00000083  00000-0  48865-5 0  9996
2 18122  65.0097 306.4629 0048524 186.3304 173.7150 13.84807300535136
Source of the keplerian elements: AFSPC